Weather History for LMML - October, 2012

Change the Weather History Date:

Sunday, October 7, 2012

  Actual Average Record
Temperature  
Mean Temperature 74 °F -  
Max Temperature 81 °F 74 °F 87 °F (2001)
Min Temperature 66 °F 62 °F 62 °F (2004)
Cooling Degree Days 8    
Growing Degree Days 24 (Base 50)    
Moisture  
Dew Point 67 °F    
Average Humidity 77    
Maximum Humidity 94    
Minimum Humidity 49    
Precipitation  
Precipitation 0.00 in 0.11 in - ()
Sea Level Pressure  
Sea Level Pressure 30.09 in    
Wind  
Wind Speed 6 mph ()    
Max Wind Speed 14 mph    
Max Gust Speed -    
Visibility 6.1 miles    
Events      
Averages and records for this station are not official NWS values.
T = Trace of Precipitation, MM = Missing Value Source: Averaged Metar Reports

Daily Weather History Graph

Daily Weather History Graph

Search for Another Location

Airport or City:

Trip Planner

Search our weather history database for the weather conditions in past years. The results will help you decide how hot, cold, wet, or windy it might be!

Date:

Astronomy

Oct. 07, 2012 Rise Set
Actual Time 7:02 AM CEST 6:36 PM CEST
Civil Twilight 6:36 AM CEST 7:02 PM CEST
Nautical Twilight 6:06 AM CEST 7:32 PM CEST
Astronomical Twilight 5:37 AM CEST 8:01 PM CEST
Moon 11:39 PM CEST (10/7) 1:19 PM CEST (10/7)
Length of Visible Light 12h 25m
Length of Day
11h 34m
Waning Gibbous, 58% of the Moon is Illuminated
Oct 7
Waning Gibbous
Oct 8
Last Quarter
Oct 15
New
Oct 22
First Quarter
Oct 29
Full

Hourly Weather History & Observations

Time (CEST) Temp. Heat Index Dew Point Humidity Pressure Visibility Wind Dir Wind Speed Gust Speed Precip Events Conditions
12:15 AM 69.8 °F - 66.2 °F 88% 30.15 in 5.6 mi SSE 3.5 mph - N/A   Unknown
12:45 AM 68.0 °F - 66.2 °F 94% 30.15 in 5.6 mi Variable 1.2 mph - N/A   Scattered Clouds
1:15 AM 68.0 °F - 64.4 °F 88% 30.15 in 5.0 mi NW 3.5 mph - N/A   Haze
1:45 AM 69.8 °F - 66.2 °F 88% 30.15 in 3.1 mi NW 2.3 mph - N/A   Haze
2:00 AM 69 °F - 65 °F 85% 30.14 in 4 mi WNW 2.3 mph - -  
2:15 AM 69.8 °F - 66.2 °F 88% 30.12 in 3.7 mi NW 4.6 mph - N/A   Unknown
2:45 AM 68.0 °F - 66.2 °F 94% 30.12 in 5.0 mi NNW 2.3 mph - N/A   Unknown
3:04 AM 69.8 °F - 66.2 °F 88% 30.12 in - WNW 3.5 mph - N/A   Haze
3:15 AM 68.0 °F - 66.2 °F 94% 30.12 in - WNW 3.5 mph - N/A   Clear
3:45 AM 68.0 °F - 66.2 °F 94% 30.12 in - WNW 3.5 mph - N/A   Clear
4:15 AM 68.0 °F - 64.4 °F 88% 30.12 in - NW 3.5 mph - N/A   Clear
4:45 AM 68.0 °F - 64.4 °F 88% 30.09 in - WNW 4.6 mph - N/A   Clear
5:00 AM 68 °F - 65 °F 87% 30.11 in 6 mi WNW 4.6 mph - -  
5:15 AM 68.0 °F - 64.4 °F 88% 30.09 in - West 4.6 mph - N/A   Clear
5:45 AM 66.2 °F - 64.4 °F 94% 30.09 in - WNW 3.5 mph - N/A   Clear
6:15 AM 68.0 °F - 64.4 °F 88% 30.09 in 6.2 mi WNW 4.6 mph - N/A   Partly Cloudy
6:45 AM 68.0 °F - 66.2 °F 94% 30.09 in 5.6 mi WNW 5.8 mph - N/A   Scattered Clouds
7:15 AM 68.0 °F - 64.4 °F 88% 30.12 in 6.2 mi WNW 5.8 mph - N/A   Partly Cloudy
7:45 AM 69.8 °F - 64.4 °F 83% 30.12 in 6.2 mi WNW 6.9 mph - N/A   Partly Cloudy
8:00 AM 71 °F - 65 °F 77% 30.12 in 6 mi WNW 5.8 mph - -  
8:15 AM 71.6 °F - 66.2 °F 83% 30.12 in 6.2 mi WNW 6.9 mph - N/A   Partly Cloudy
8:45 AM 75.2 °F - 66.2 °F 73% 30.12 in 6.2 mi West 4.6 mph - N/A   Partly Cloudy
9:15 AM 77.0 °F - 66.2 °F 69% 30.12 in 6.2 mi WNW 8.1 mph - N/A   Partly Cloudy
9:45 AM 78.8 °F - 64.4 °F 61% 30.12 in - WNW 11.5 mph - N/A   Clear
10:15 AM 78.8 °F - 64.4 °F 61% 30.12 in 6.2 mi West 10.4 mph - N/A   Partly Cloudy
10:45 AM 78.8 °F - 64.4 °F 61% 30.12 in 6.2 mi NW 8.1 mph - N/A   Partly Cloudy
11:00 AM 79 °F - 65 °F 52% 30.13 in 12 mi West 6.9 mph - -   Scattered Clouds
11:15 AM 78.8 °F - 64.4 °F 61% 30.12 in 6.2 mi NW 8.1 mph - N/A   Partly Cloudy
11:45 AM 80.6 °F 82.3 °F 64.4 °F 58% 30.12 in 6.2 mi NW 10.4 mph - N/A   Partly Cloudy
12:15 PM 80.6 °F 82.3 °F 64.4 °F 58% 30.12 in 6.2 mi West 9.2 mph - N/A   Partly Cloudy
12:45 PM 80.6 °F 82.7 °F 66.2 °F 61% 30.12 in 6.2 mi WSW 10.4 mph - N/A   Partly Cloudy
1:15 PM 80.6 °F 82.3 °F 64.4 °F 58% 30.09 in 6.2 mi WSW 10.4 mph - N/A   Partly Cloudy
1:45 PM 80.6 °F 82.3 °F 64.4 °F 58% 30.09 in 6.2 mi WSW 12.7 mph - N/A   Partly Cloudy
2:00 PM 81 °F - 65 °F 49% 30.09 in 12 mi West 10.4 mph - -  
2:15 PM 80.6 °F 82.3 °F 64.4 °F 58% 30.09 in - West 11.5 mph - N/A   Clear
2:45 PM 80.6 °F 82.7 °F 66.2 °F 61% 30.06 in - West 12.7 mph - N/A   Clear
3:15 PM 78.8 °F - 66.2 °F 65% 30.06 in 6.2 mi West 13.8 mph - N/A   Partly Cloudy
3:45 PM 78.8 °F - 66.2 °F 65% 30.06 in 6.2 mi West 12.7 mph - N/A   Partly Cloudy
4:15 PM 78.8 °F - 66.2 °F 65% 30.06 in 6.2 mi West 13.8 mph - N/A   Partly Cloudy
4:45 PM 78.8 °F - 68.0 °F 69% 30.06 in 6.2 mi WNW 12.7 mph - N/A   Scattered Clouds
5:00 PM 78 °F - 68 °F 63% 30.06 in 15 mi WNW 13.8 mph - -   Partly Cloudy
5:15 PM 78.8 °F - 68.0 °F 69% 30.06 in 6.2 mi WNW 11.5 mph - N/A   Scattered Clouds
5:45 PM 77.0 °F - 68.0 °F 74% 30.06 in 6.2 mi WNW 12.7 mph - N/A   Scattered Clouds
6:15 PM 77.0 °F - 68.0 °F 74% 30.06 in 6.2 mi WNW 12.7 mph - N/A   Partly Cloudy
6:45 PM 75.2 °F - 68.0 °F 78% 30.06 in 6.2 mi WNW 10.4 mph - N/A   Partly Cloudy
7:15 PM 75.2 °F - 69.8 °F 83% 30.04 in 6.2 mi WNW 8.1 mph - N/A   Partly Cloudy
7:45 PM 75.2 °F - 68.0 °F 78% 30.06 in 6.2 mi NW 11.5 mph - N/A   Partly Cloudy
8:00 PM 75 °F - 69 °F 76% 30.05 in 9 mi NW 10.4 mph - -  
8:15 PM 75.2 °F - 69.8 °F 83% 30.06 in 6.2 mi WNW 9.2 mph - N/A   Partly Cloudy
8:45 PM 75.2 °F - 69.8 °F 83% 30.06 in 6.2 mi WNW 8.1 mph - N/A   Partly Cloudy
9:15 PM 75.2 °F - 69.8 °F 83% 30.06 in 6.2 mi WNW 8.1 mph - N/A   Partly Cloudy
9:45 PM 75.2 °F - 69.8 °F 83% 30.06 in 6.2 mi WNW 8.1 mph - N/A   Partly Cloudy
10:03 PM 75.2 °F - 69.8 °F 83% 30.04 in 1.8 mi West 8.1 mph - N/A   Haze
10:15 PM 75.2 °F - 69.8 °F 83% 30.04 in 2.2 mi West 6.9 mph - N/A   Haze
10:32 PM 75.2 °F - 69.8 °F 83% 30.04 in 5.0 mi WNW 5.8 mph - N/A   Haze
10:44 PM 75.2 °F - 69.8 °F 83% 30.04 in 4.3 mi WNW 6.9 mph - N/A   Scattered Clouds
10:45 PM 75.2 °F - 69.8 °F 83% 30.04 in 3.7 mi WNW 6.9 mph - N/A   Haze
11:00 PM 75 °F - 70 °F 79% 30.04 in 9 mi West 5.8 mph - -   Scattered Clouds
11:00 PM 75.2 °F - 69.8 °F 83% 30.04 in - WNW 5.8 mph - N/A   Partly Cloudy
11:15 PM 75.2 °F - 69.8 °F 83% 30.04 in 5.0 mi WNW 9.2 mph - N/A   Haze
11:45 PM 75.2 °F - 69.8 °F 83% 30.04 in 3.7 mi WNW 10.4 mph - N/A   Light Drizzle